Year,Month,Day,Hour,Minute,Value (Times are PST for temperature in C)
2015,08,20,00,00,19.50
2015,08,20,00,01,19.50
2015,08,20,00,02,19.40
2015,08,20,00,03,19.40
2015,08,20,00,04,19.40
2015,08,20,00,05,19.30
2015,08,20,00,06,19.30
2015,08,20,00,07,19.30
2015,08,20,00,08,19.20
2015,08,20,00,09,19.20
2015,08,20,00,10,19.20
2015,08,20,00,11,19.20
2015,08,20,00,12,19.10
2015,08,20,00,13,19.10
2015,08,20,00,14,19.10
2015,08,20,00,15,19.10
2015,08,20,00,16,19.10
2015,08,20,00,17,19.00
2015,08,20,00,18,19.00
2015,08,20,00,19,19.00
2015,08,20,00,20,19.00
2015,08,20,00,21,19.00
2015,08,20,00,22,19.00
2015,08,20,00,23,19.00
2015,08,20,00,24,19.00
2015,08,20,00,25,19.00
2015,08,20,00,26,19.00
2015,08,20,00,27,19.00
2015,08,20,00,28,19.10
2015,08,20,00,29,19.10
2015,08,20,00,30,19.10
2015,08,20,00,31,19.10
2015,08,20,00,32,19.10
2015,08,20,00,33,19.10
2015,08,20,00,34,19.10
2015,08,20,00,35,19.00
2015,08,20,00,36,19.00
2015,08,20,00,37,19.00
2015,08,20,00,38,18.90
2015,08,20,00,39,18.90
2015,08,20,00,40,18.90
2015,08,20,00,41,18.90
2015,08,20,00,42,18.90
2015,08,20,00,43,18.90
2015,08,20,00,44,18.90
2015,08,20,00,45,18.90
2015,08,20,00,46,18.80
2015,08,20,00,47,18.80
2015,08,20,00,48,18.80
2015,08,20,00,49,18.80
2015,08,20,00,50,18.80
2015,08,20,00,51,18.80
2015,08,20,00,52,18.80
2015,08,20,00,53,18.80
2015,08,20,00,54,18.80
2015,08,20,00,55,18.80
2015,08,20,00,56,18.80
2015,08,20,00,57,18.80
2015,08,20,00,58,18.80
2015,08,20,00,59,18.80
2015,08,20,01,00,18.80
2015,08,20,01,01,18.80
2015,08,20,01,02,18.70
2015,08,20,01,03,18.70
2015,08,20,01,04,18.70
2015,08,20,01,05,18.70
2015,08,20,01,06,18.70
2015,08,20,01,07,18.70
2015,08,20,01,08,18.60
2015,08,20,01,09,18.60
2015,08,20,01,10,18.60
2015,08,20,01,11,18.60
2015,08,20,01,12,18.50
2015,08,20,01,13,18.50
2015,08,20,01,14,18.50
2015,08,20,01,15,18.50
2015,08,20,01,16,18.50
2015,08,20,01,17,18.50
2015,08,20,01,18,18.50
2015,08,20,01,19,18.50
2015,08,20,01,20,18.50
2015,08,20,01,21,18.50
2015,08,20,01,22,18.50
2015,08,20,01,23,18.50
2015,08,20,01,24,18.60
2015,08,20,01,25,18.60
2015,08,20,01,26,18.60
2015,08,20,01,27,18.60
2015,08,20,01,28,18.60
2015,08,20,01,29,18.60
2015,08,20,01,30,18.60
2015,08,20,01,31,18.60
2015,08,20,01,32,18.60
2015,08,20,01,33,18.60
2015,08,20,01,34,18.60
2015,08,20,01,35,18.50
2015,08,20,01,36,18.50
2015,08,20,01,37,18.50
2015,08,20,01,38,18.50
2015,08,20,01,39,18.50
2015,08,20,01,40,18.40
2015,08,20,01,41,18.40
2015,08,20,01,42,18.40
2015,08,20,01,43,18.40
2015,08,20,01,44,18.40
2015,08,20,01,45,18.40
2015,08,20,01,46,18.30
2015,08,20,01,47,18.30
2015,08,20,01,48,18.30
2015,08,20,01,49,18.30
2015,08,20,01,50,18.20
2015,08,20,01,51,18.20
2015,08,20,01,52,18.20
2015,08,20,01,53,18.10
2015,08,20,01,54,18.10
2015,08,20,01,55,18.10
2015,08,20,01,56,18.10
2015,08,20,01,57,18.10
2015,08,20,01,58,18.00
2015,08,20,01,59,18.00
2015,08,20,02,00,17.90
2015,08,20,02,01,17.90
2015,08,20,02,02,17.80
2015,08,20,02,03,17.80
2015,08,20,02,04,17.80
2015,08,20,02,05,17.70
2015,08,20,02,06,17.70
2015,08,20,02,07,17.70
2015,08,20,02,08,17.60
2015,08,20,02,09,17.60
2015,08,20,02,10,17.60
2015,08,20,02,11,17.60
2015,08,20,02,12,17.60
2015,08,20,02,13,17.60
2015,08,20,02,14,17.60
2015,08,20,02,15,17.60
2015,08,20,02,16,17.60
2015,08,20,02,17,17.60
2015,08,20,02,18,17.70
2015,08,20,02,19,17.70
2015,08,20,02,20,17.70
2015,08,20,02,21,17.70
2015,08,20,02,22,17.70
2015,08,20,02,23,17.80
2015,08,20,02,24,17.80
2015,08,20,02,25,17.80
2015,08,20,02,26,17.80
2015,08,20,02,27,17.80
2015,08,20,02,28,17.80
2015,08,20,02,29,17.80
2015,08,20,02,30,17.80
2015,08,20,02,31,17.90
2015,08,20,02,32,17.90
2015,08,20,02,33,17.90
2015,08,20,02,34,17.90
2015,08,20,02,35,17.90
2015,08,20,02,36,17.90
2015,08,20,02,37,17.90
2015,08,20,02,38,18.00
2015,08,20,02,39,18.00
2015,08,20,02,40,18.00
2015,08,20,02,41,18.00
2015,08,20,02,42,18.00
2015,08,20,02,43,18.10
2015,08,20,02,44,18.10
2015,08,20,02,45,18.10
2015,08,20,02,46,18.10
2015,08,20,02,47,18.10
2015,08,20,02,48,18.10
2015,08,20,02,49,18.20
2015,08,20,02,50,18.20
2015,08,20,02,51,18.20
2015,08,20,02,52,18.20
2015,08,20,02,53,18.20
2015,08,20,02,54,18.20
2015,08,20,02,55,18.20
2015,08,20,02,56,18.20
2015,08,20,02,57,18.10
2015,08,20,02,58,18.10
2015,08,20,02,59,18.10
2015,08,20,03,00,18.10
2015,08,20,03,01,18.10
2015,08,20,03,02,18.10
2015,08,20,03,03,18.10
2015,08,20,03,04,18.00
2015,08,20,03,05,18.00
2015,08,20,03,06,18.00
2015,08,20,03,07,17.90
2015,08,20,03,08,17.90
2015,08,20,03,09,17.90
2015,08,20,03,10,17.90
2015,08,20,03,11,17.90
2015,08,20,03,12,17.90
2015,08,20,03,13,17.80
2015,08,20,03,14,17.80
2015,08,20,03,15,17.80
2015,08,20,03,16,17.70
2015,08,20,03,17,17.70
2015,08,20,03,18,17.70
2015,08,20,03,19,17.60
2015,08,20,03,20,17.60
2015,08,20,03,21,17.50
2015,08,20,03,22,17.50
2015,08,20,03,23,17.40
2015,08,20,03,24,17.40
2015,08,20,03,25,17.30
2015,08,20,03,26,17.30
2015,08,20,03,27,17.30
2015,08,20,03,28,17.20
2015,08,20,03,29,17.20
2015,08,20,03,30,17.10
2015,08,20,03,31,17.00
2015,08,20,03,32,17.00
2015,08,20,03,33,16.90
2015,08,20,03,34,16.90
2015,08,20,03,35,16.80
2015,08,20,03,36,16.80
2015,08,20,03,37,16.70
2015,08,20,03,38,16.70
2015,08,20,03,39,16.60
2015,08,20,03,40,16.60
2015,08,20,03,41,16.50
2015,08,20,03,42,16.50
2015,08,20,03,43,16.40
2015,08,20,03,44,16.40
2015,08,20,03,45,16.30
2015,08,20,03,46,16.30
2015,08,20,03,47,16.20
2015,08,20,03,48,16.20
2015,08,20,03,49,16.20
2015,08,20,03,50,16.10
2015,08,20,03,51,16.10
2015,08,20,03,52,16.10
2015,08,20,03,53,16.00
2015,08,20,03,54,16.00
2015,08,20,03,55,15.90
2015,08,20,03,56,15.90
2015,08,20,03,57,15.90
2015,08,20,03,58,15.80
2015,08,20,03,59,15.80
2015,08,20,04,00,15.80
2015,08,20,04,01,15.80
2015,08,20,04,02,15.70
2015,08,20,04,03,15.70
2015,08,20,04,04,15.70
2015,08,20,04,05,15.70
2015,08,20,04,06,15.60
2015,08,20,04,07,15.60
2015,08,20,04,08,15.60
2015,08,20,04,09,15.60
2015,08,20,04,10,15.50
2015,08,20,04,11,15.50
2015,08,20,04,12,15.50
2015,08,20,04,13,15.40
2015,08,20,04,14,15.40
2015,08,20,04,15,15.40
2015,08,20,04,16,15.40
2015,08,20,04,17,15.40
2015,08,20,04,18,15.30
2015,08,20,04,19,15.30
2015,08,20,04,20,15.30
2015,08,20,04,21,15.30
2015,08,20,04,22,15.30
2015,08,20,04,23,15.20
2015,08,20,04,24,15.20
2015,08,20,04,25,15.20
2015,08,20,04,26,15.20
2015,08,20,04,27,15.10
2015,08,20,04,28,15.10
2015,08,20,04,29,15.10
2015,08,20,04,30,15.00
2015,08,20,04,31,15.00
2015,08,20,04,32,14.90
2015,08,20,04,33,14.90
2015,08,20,04,34,14.80
2015,08,20,04,35,14.80
2015,08,20,04,36,14.80
2015,08,20,04,37,14.70
2015,08,20,04,38,14.70
2015,08,20,04,39,14.60
2015,08,20,04,40,14.60
2015,08,20,04,41,14.50
2015,08,20,04,42,14.50
2015,08,20,04,43,14.40
2015,08,20,04,44,14.30
2015,08,20,04,45,14.30
2015,08,20,04,46,14.20
2015,08,20,04,47,14.20
2015,08,20,04,48,14.10
2015,08,20,04,49,14.10
2015,08,20,04,50,14.00
2015,08,20,04,51,14.00
2015,08,20,04,52,13.90
2015,08,20,04,53,13.90
2015,08,20,04,54,13.90
2015,08,20,04,55,13.80
2015,08,20,04,56,13.80
2015,08,20,04,57,13.80
2015,08,20,04,58,13.80
2015,08,20,04,59,13.80
2015,08,20,05,00,13.80
2015,08,20,05,01,13.70
2015,08,20,05,02,13.70
2015,08,20,05,03,13.70
2015,08,20,05,04,13.70
2015,08,20,05,05,13.70
2015,08,20,05,06,13.60
2015,08,20,05,07,13.60
2015,08,20,05,08,13.60
2015,08,20,05,09,13.60
2015,08,20,05,10,13.60
2015,08,20,05,11,13.60
2015,08,20,05,12,13.60
2015,08,20,05,13,13.60
2015,08,20,05,14,13.50
2015,08,20,05,15,13.50
2015,08,20,05,16,13.50
2015,08,20,05,17,13.50
2015,08,20,05,18,13.50
2015,08,20,05,19,13.50
2015,08,20,05,20,13.50
2015,08,20,05,21,13.40
2015,08,20,05,22,13.40
2015,08,20,05,23,13.40
2015,08,20,05,24,13.40
2015,08,20,05,25,13.40
2015,08,20,05,26,13.40
2015,08,20,05,27,13.40
2015,08,20,05,28,13.40
2015,08,20,05,29,13.40
2015,08,20,05,30,13.30
2015,08,20,05,31,13.30
2015,08,20,05,32,13.30
2015,08,20,05,33,13.30
2015,08,20,05,34,13.30
2015,08,20,05,35,13.30
2015,08,20,05,36,13.30
2015,08,20,05,37,13.30
2015,08,20,05,38,13.30
2015,08,20,05,39,13.30
2015,08,20,05,40,13.30
2015,08,20,05,41,13.30
2015,08,20,05,42,13.30
2015,08,20,05,43,13.30
2015,08,20,05,44,13.30
2015,08,20,05,45,13.30
2015,08,20,05,46,13.30
2015,08,20,05,47,13.30
2015,08,20,05,48,13.30
2015,08,20,05,49,13.30
2015,08,20,05,50,13.30
2015,08,20,05,51,13.30
2015,08,20,05,52,13.30
2015,08,20,05,53,13.30
2015,08,20,05,54,13.30
2015,08,20,05,55,13.30
2015,08,20,05,56,13.30
2015,08,20,05,57,13.30
2015,08,20,05,58,13.30
2015,08,20,05,59,13.30
2015,08,20,06,00,13.30
2015,08,20,06,01,13.30
2015,08,20,06,02,13.30
2015,08,20,06,03,13.30
2015,08,20,06,04,13.30
2015,08,20,06,05,13.40
2015,08,20,06,06,13.40
2015,08,20,06,07,13.40
2015,08,20,06,08,13.40
2015,08,20,06,09,13.40
2015,08,20,06,10,13.40
2015,08,20,06,11,13.40
2015,08,20,06,12,13.40
2015,08,20,06,13,13.40
2015,08,20,06,14,13.40
2015,08,20,06,15,13.40
2015,08,20,06,16,13.40
2015,08,20,06,17,13.40
2015,08,20,06,18,13.40
2015,08,20,06,19,13.40
2015,08,20,06,20,13.40
2015,08,20,06,21,13.40
2015,08,20,06,22,13.40
2015,08,20,06,23,13.40
2015,08,20,06,24,13.40
2015,08,20,06,25,13.40
2015,08,20,06,26,13.40
2015,08,20,06,27,13.40
2015,08,20,06,28,13.40
2015,08,20,06,29,13.40
2015,08,20,06,30,13.40
2015,08,20,06,31,13.40
2015,08,20,06,32,13.40
2015,08,20,06,33,13.40
2015,08,20,06,34,13.30
2015,08,20,06,35,13.30
2015,08,20,06,36,13.30
2015,08,20,06,37,13.30
2015,08,20,06,38,13.30
2015,08,20,06,39,13.30
2015,08,20,06,40,13.30
2015,08,20,06,41,13.30
2015,08,20,06,42,13.30
2015,08,20,06,43,13.30
2015,08,20,06,44,13.30
2015,08,20,06,45,13.20
2015,08,20,06,46,13.20
2015,08,20,06,47,13.20
2015,08,20,06,48,13.20
2015,08,20,06,49,13.20
2015,08,20,06,50,13.20
2015,08,20,06,51,13.20
2015,08,20,06,52,13.20
2015,08,20,06,53,13.20
2015,08,20,06,54,13.20
2015,08,20,06,55,13.20
2015,08,20,06,56,13.20
2015,08,20,06,57,13.20
2015,08,20,06,58,13.20
2015,08,20,06,59,13.20
2015,08,20,07,00,13.20
2015,08,20,07,01,13.20
2015,08,20,07,02,13.10
2015,08,20,07,03,13.10
2015,08,20,07,04,13.10
2015,08,20,07,05,13.10
2015,08,20,07,06,13.10
2015,08,20,07,07,13.10
2015,08,20,07,08,13.10
2015,08,20,07,09,13.10
2015,08,20,07,10,13.10
2015,08,20,07,11,13.10
2015,08,20,07,12,13.20
2015,08,20,07,13,13.20
2015,08,20,07,14,13.20
2015,08,20,07,15,13.20
2015,08,20,07,16,13.20
2015,08,20,07,17,13.20
2015,08,20,07,18,13.20
2015,08,20,07,19,13.20
2015,08,20,07,20,13.20
2015,08,20,07,21,13.20
2015,08,20,07,22,13.20
2015,08,20,07,23,13.20
2015,08,20,07,24,13.20
2015,08,20,07,25,13.30
2015,08,20,07,26,13.30
2015,08,20,07,27,13.30
2015,08,20,07,28,13.30
2015,08,20,07,29,13.30
2015,08,20,07,30,13.30
2015,08,20,07,31,13.30
2015,08,20,07,32,13.30
2015,08,20,07,33,13.30
2015,08,20,07,34,13.30
2015,08,20,07,35,13.30
2015,08,20,07,36,13.30
2015,08,20,07,37,13.30
2015,08,20,07,38,13.30
2015,08,20,07,39,13.40
2015,08,20,07,40,13.40
2015,08,20,07,41,13.40
2015,08,20,07,42,13.40
2015,08,20,07,43,13.40
2015,08,20,07,44,13.40
2015,08,20,07,45,13.50
2015,08,20,07,46,13.50
2015,08,20,07,47,13.50
2015,08,20,07,48,13.60
2015,08,20,07,49,13.60
2015,08,20,07,50,13.60
2015,08,20,07,51,13.60
2015,08,20,07,52,13.60
2015,08,20,07,53,13.70
2015,08,20,07,54,13.70
2015,08,20,07,55,13.70
2015,08,20,07,56,13.70
2015,08,20,07,57,13.70
2015,08,20,07,58,13.70
2015,08,20,07,59,13.70
2015,08,20,08,00,13.70
2015,08,20,08,01,13.70
2015,08,20,08,02,13.70
2015,08,20,08,03,13.70
2015,08,20,08,04,13.80
2015,08,20,08,05,13.80
2015,08,20,08,06,13.80
2015,08,20,08,07,13.80
2015,08,20,08,08,13.80
2015,08,20,08,09,13.80
2015,08,20,08,10,13.90
2015,08,20,08,11,13.90
2015,08,20,08,12,13.90
2015,08,20,08,13,13.90
2015,08,20,08,14,13.90
2015,08,20,08,15,14.00
2015,08,20,08,16,14.00
2015,08,20,08,17,14.00
2015,08,20,08,18,14.10
2015,08,20,08,19,14.10
2015,08,20,08,20,14.10
2015,08,20,08,21,14.20
2015,08,20,08,22,14.20
2015,08,20,08,23,14.30
2015,08,20,08,24,14.30
2015,08,20,08,25,14.40
2015,08,20,08,26,14.40
2015,08,20,08,27,14.40
2015,08,20,08,28,14.50
2015,08,20,08,29,14.50
2015,08,20,08,30,14.50
2015,08,20,08,31,14.50
2015,08,20,08,32,14.60
2015,08,20,08,33,14.60
2015,08,20,08,34,14.70
2015,08,20,08,35,14.70
2015,08,20,08,36,14.80
2015,08,20,08,37,14.80
2015,08,20,08,38,14.90
2015,08,20,08,39,15.00
2015,08,20,08,40,15.00
2015,08,20,08,41,15.10
2015,08,20,08,42,15.10
2015,08,20,08,43,15.20
2015,08,20,08,44,15.20
2015,08,20,08,45,15.20
2015,08,20,08,46,15.30
2015,08,20,08,47,15.30
2015,08,20,08,48,15.30
2015,08,20,08,49,15.30
2015,08,20,08,50,15.30
2015,08,20,08,51,15.40
2015,08,20,08,52,15.40
2015,08,20,08,53,15.50
2015,08,20,08,54,15.60
2015,08,20,08,55,15.70
2015,08,20,08,56,15.80
2015,08,20,08,57,15.80
2015,08,20,08,58,15.90
2015,08,20,08,59,15.90
2015,08,20,09,00,16.00
2015,08,20,09,01,16.00
2015,08,20,09,02,16.10
2015,08,20,09,03,16.10
2015,08,20,09,04,16.10
2015,08,20,09,05,16.20
2015,08,20,09,06,16.20
2015,08,20,09,07,16.20
2015,08,20,09,08,16.20
2015,08,20,09,09,16.20
2015,08,20,09,10,16.20
2015,08,20,09,11,16.30
2015,08,20,09,12,16.30
2015,08,20,09,13,16.30
2015,08,20,09,14,16.40
2015,08,20,09,15,16.40
2015,08,20,09,16,16.50
2015,08,20,09,17,16.60
2015,08,20,09,18,16.70
2015,08,20,09,19,16.70
2015,08,20,09,20,16.80
2015,08,20,09,21,16.80
2015,08,20,09,22,16.90
2015,08,20,09,23,16.90
2015,08,20,09,24,17.00
2015,08,20,09,25,17.00
2015,08,20,09,26,17.10
2015,08,20,09,27,17.20
2015,08,20,09,28,17.20
2015,08,20,09,29,17.20
2015,08,20,09,30,17.30
2015,08,20,09,31,17.30
2015,08,20,09,32,17.40
2015,08,20,09,33,17.50
2015,08,20,09,34,17.50
2015,08,20,09,35,17.60
2015,08,20,09,36,17.70
2015,08,20,09,37,17.70
2015,08,20,09,38,17.80
2015,08,20,09,39,17.80
2015,08,20,09,40,17.80
2015,08,20,09,41,17.80
2015,08,20,09,42,17.80
2015,08,20,09,43,17.80
2015,08,20,09,44,17.80
2015,08,20,09,45,17.80
2015,08,20,09,46,17.80
2015,08,20,09,47,17.90
2015,08,20,09,48,17.90
2015,08,20,09,49,17.90
2015,08,20,09,50,17.90
2015,08,20,09,51,17.80
2015,08,20,09,52,17.80
2015,08,20,09,53,17.70
2015,08,20,09,54,17.70
2015,08,20,09,55,17.70
2015,08,20,09,56,17.70
2015,08,20,09,57,17.70
2015,08,20,09,58,17.70
2015,08,20,09,59,17.80
2015,08,20,10,00,17.80
2015,08,20,10,01,17.90
2015,08,20,10,02,17.90
2015,08,20,10,03,17.90
2015,08,20,10,04,17.90
2015,08,20,10,05,17.80
2015,08,20,10,06,17.80
2015,08,20,10,07,17.80
2015,08,20,10,08,17.90
2015,08,20,10,09,17.90
2015,08,20,10,10,17.90
2015,08,20,10,11,18.00
2015,08,20,10,12,18.00
2015,08,20,10,13,18.10
2015,08,20,10,14,18.20
2015,08,20,10,15,18.20
2015,08,20,10,16,18.20
2015,08,20,10,17,18.20
2015,08,20,10,18,18.20
2015,08,20,10,19,18.20
2015,08,20,10,20,18.20
2015,08,20,10,21,18.30
2015,08,20,10,22,18.30
2015,08,20,10,23,18.40
2015,08,20,10,24,18.40
2015,08,20,10,25,18.50
2015,08,20,10,26,18.50
2015,08,20,10,27,18.50
2015,08,20,10,28,18.50
2015,08,20,10,29,18.50
2015,08,20,10,30,18.60
2015,08,20,10,31,18.60
2015,08,20,10,32,18.60
2015,08,20,10,33,18.60
2015,08,20,10,34,18.60
2015,08,20,10,35,18.60
2015,08,20,10,36,18.60
2015,08,20,10,37,18.60
2015,08,20,10,38,18.50
2015,08,20,10,39,18.40
2015,08,20,10,40,18.40
2015,08,20,10,41,18.30
2015,08,20,10,42,18.30
2015,08,20,10,43,18.40
2015,08,20,10,44,18.40
2015,08,20,10,45,18.40
2015,08,20,10,46,18.50
2015,08,20,10,47,18.50
2015,08,20,10,48,18.60
2015,08,20,10,49,18.60
2015,08,20,10,50,18.60
2015,08,20,10,51,18.70
2015,08,20,10,52,18.70
2015,08,20,10,53,18.80
2015,08,20,10,54,18.80
2015,08,20,10,55,18.90
2015,08,20,10,56,18.90
2015,08,20,10,57,19.00
2015,08,20,10,58,19.00
2015,08,20,10,59,19.10
2015,08,20,11,00,19.10
2015,08,20,11,01,19.20
2015,08,20,11,02,19.20
2015,08,20,11,03,19.30
2015,08,20,11,04,19.30
2015,08,20,11,05,19.30
2015,08,20,11,06,19.40
2015,08,20,11,07,19.40
2015,08,20,11,08,19.40
2015,08,20,11,09,19.40
2015,08,20,11,10,19.40
2015,08,20,11,11,19.40
2015,08,20,11,12,19.40
2015,08,20,11,13,19.40
2015,08,20,11,14,19.30
2015,08,20,11,15,19.30
2015,08,20,11,16,19.30
2015,08,20,11,17,19.30
2015,08,20,11,18,19.40
2015,08,20,11,19,19.40
2015,08,20,11,20,19.40
2015,08,20,11,21,19.40
2015,08,20,11,22,19.40
2015,08,20,11,23,19.40
2015,08,20,11,24,19.50
2015,08,20,11,25,19.50
2015,08,20,11,26,19.50
2015,08,20,11,27,19.60
2015,08,20,11,28,19.60
2015,08,20,11,29,19.70
2015,08,20,11,30,19.70
2015,08,20,11,31,19.70
2015,08,20,11,32,19.70
2015,08,20,11,33,19.60
2015,08,20,11,34,19.60
2015,08,20,11,35,19.60
2015,08,20,11,36,19.60
2015,08,20,11,37,19.50
2015,08,20,11,38,19.40
2015,08,20,11,39,19.40
2015,08,20,11,40,19.40
2015,08,20,11,41,19.40
2015,08,20,11,42,19.50
2015,08,20,11,43,19.50
2015,08,20,11,44,19.50
2015,08,20,11,45,19.50
2015,08,20,11,46,19.50
2015,08,20,11,47,19.50
2015,08,20,11,48,19.60
2015,08,20,11,49,19.60
2015,08,20,11,50,19.70
2015,08,20,11,51,19.70
2015,08,20,11,52,19.70
2015,08,20,11,53,19.80
2015,08,20,11,54,19.90
2015,08,20,11,55,19.90
2015,08,20,11,56,20.00
2015,08,20,11,57,20.10
2015,08,20,11,58,20.20
2015,08,20,11,59,20.20
2015,08,20,12,00,20.10
2015,08,20,12,01,20.00
2015,08,20,12,02,20.00
2015,08,20,12,03,19.90
2015,08,20,12,04,19.90
2015,08,20,12,05,19.80
2015,08,20,12,06,19.90
2015,08,20,12,07,19.90
2015,08,20,12,08,19.90
2015,08,20,12,09,19.90
2015,08,20,12,10,19.90
2015,08,20,12,11,19.90
2015,08,20,12,12,19.90
2015,08,20,12,13,19.80
2015,08,20,12,14,19.80
2015,08,20,12,15,19.80
2015,08,20,12,16,19.80
2015,08,20,12,17,19.80
2015,08,20,12,18,19.90
2015,08,20,12,19,19.90
2015,08,20,12,20,19.90
2015,08,20,12,21,19.90
2015,08,20,12,22,19.90
2015,08,20,12,23,19.90
2015,08,20,12,24,19.90
2015,08,20,12,25,19.90
2015,08,20,12,26,19.90
2015,08,20,12,27,20.00
2015,08,20,12,28,20.00
2015,08,20,12,29,20.00
2015,08,20,12,30,19.90
2015,08,20,12,31,19.90
2015,08,20,12,32,19.80
2015,08,20,12,33,19.80
2015,08,20,12,34,19.70
2015,08,20,12,35,19.70
2015,08,20,12,36,19.60
2015,08,20,12,37,19.60
2015,08,20,12,38,19.60
2015,08,20,12,39,19.50
2015,08,20,12,40,19.50
2015,08,20,12,41,19.50
2015,08,20,12,42,19.50
2015,08,20,12,43,19.50
2015,08,20,12,44,19.60
2015,08,20,12,45,19.60
2015,08,20,12,46,19.70
2015,08,20,12,47,19.80
2015,08,20,12,48,19.90
2015,08,20,12,49,19.90
2015,08,20,12,50,19.80
2015,08,20,12,51,19.80
2015,08,20,12,52,19.80
2015,08,20,12,53,19.70
2015,08,20,12,54,19.70
2015,08,20,12,55,19.70
2015,08,20,12,56,19.70
2015,08,20,12,57,19.70
2015,08,20,12,58,19.70
2015,08,20,12,59,19.60
2015,08,20,13,00,19.60
2015,08,20,13,01,19.60
2015,08,20,13,02,19.60
2015,08,20,13,03,19.70
2015,08,20,13,04,19.70
2015,08,20,13,05,19.70
2015,08,20,13,06,19.70
2015,08,20,13,07,19.70
2015,08,20,13,08,19.70
2015,08,20,13,09,19.80
2015,08,20,13,10,19.90
2015,08,20,13,11,19.90
2015,08,20,13,12,20.00
2015,08,20,13,13,20.10
2015,08,20,13,14,20.30
2015,08,20,13,15,20.30
2015,08,20,13,16,20.40
2015,08,20,13,17,20.30
2015,08,20,13,18,20.30
2015,08,20,13,19,20.30
2015,08,20,13,20,20.20
2015,08,20,13,21,20.20
2015,08,20,13,22,20.20
2015,08,20,13,23,20.10
2015,08,20,13,24,20.10
2015,08,20,13,25,20.10
2015,08,20,13,26,20.20
2015,08,20,13,27,20.20
2015,08,20,13,28,20.30
2015,08,20,13,29,20.40
2015,08,20,13,30,20.40
2015,08,20,13,31,20.30
2015,08,20,13,32,20.20
2015,08,20,13,33,20.20
2015,08,20,13,34,20.30
2015,08,20,13,35,20.30
2015,08,20,13,36,20.30
2015,08,20,13,37,20.30
2015,08,20,13,38,20.30
2015,08,20,13,39,20.30
2015,08,20,13,40,20.20
2015,08,20,13,41,20.20
2015,08,20,13,42,20.20
2015,08,20,13,43,20.20
2015,08,20,13,44,20.20
2015,08,20,13,45,20.20
2015,08,20,13,46,20.30
2015,08,20,13,47,20.40
2015,08,20,13,48,20.50
2015,08,20,13,49,20.60
2015,08,20,13,50,20.50
2015,08,20,13,51,20.50
2015,08,20,13,52,20.50
2015,08,20,13,53,20.50
2015,08,20,13,54,20.50
2015,08,20,13,55,20.50
2015,08,20,13,56,20.50
2015,08,20,13,57,20.50
2015,08,20,13,58,20.60
2015,08,20,13,59,20.60
2015,08,20,14,00,20.70
2015,08,20,14,01,20.80
2015,08,20,14,02,20.70
2015,08,20,14,03,20.70
2015,08,20,14,04,20.70
2015,08,20,14,05,20.70
2015,08,20,14,06,20.70
2015,08,20,14,07,20.70
2015,08,20,14,08,20.70
2015,08,20,14,09,20.70
2015,08,20,14,10,20.70
2015,08,20,14,11,20.70
2015,08,20,14,12,20.70
2015,08,20,14,13,20.80
2015,08,20,14,14,20.90
2015,08,20,14,15,21.00
2015,08,20,14,16,21.10
2015,08,20,14,17,21.20
2015,08,20,14,18,21.20
2015,08,20,14,19,21.20
2015,08,20,14,20,21.20
2015,08,20,14,21,21.10
2015,08,20,14,22,21.10
2015,08,20,14,23,21.10
2015,08,20,14,24,21.10
2015,08,20,14,25,21.10
2015,08,20,14,26,21.10
2015,08,20,14,27,21.10
2015,08,20,14,28,21.20
2015,08,20,14,29,21.20
2015,08,20,14,30,21.20
2015,08,20,14,31,21.20
2015,08,20,14,32,21.20
2015,08,20,14,33,21.20
2015,08,20,14,34,21.20
2015,08,20,14,35,21.20
2015,08,20,14,36,21.10
2015,08,20,14,37,21.10
2015,08,20,14,38,21.20
2015,08,20,14,39,21.20
2015,08,20,14,40,21.30
2015,08,20,14,41,21.30
2015,08,20,14,42,21.30
2015,08,20,14,43,21.30
2015,08,20,14,44,21.30
2015,08,20,14,45,21.40
2015,08,20,14,46,21.50
2015,08,20,14,47,21.60
2015,08,20,14,48,21.60
2015,08,20,14,49,21.60
2015,08,20,14,50,21.60
2015,08,20,14,51,21.60
2015,08,20,14,52,21.60
2015,08,20,14,53,21.60
2015,08,20,14,54,21.60
2015,08,20,14,55,21.70
2015,08,20,14,56,21.80
2015,08,20,14,57,21.80
2015,08,20,14,58,21.80
2015,08,20,14,59,21.80
2015,08,20,15,00,21.70
2015,08,20,15,01,21.70
2015,08,20,15,02,21.80
2015,08,20,15,03,21.80
2015,08,20,15,04,21.80
2015,08,20,15,05,21.80
2015,08,20,15,06,21.80
2015,08,20,15,07,21.80
2015,08,20,15,08,21.80
2015,08,20,15,09,21.80
2015,08,20,15,10,21.80
2015,08,20,15,11,21.80
2015,08,20,15,12,21.70
2015,08,20,15,13,21.70
2015,08,20,15,14,21.60
2015,08,20,15,15,21.50
2015,08,20,15,16,21.50
2015,08,20,15,17,21.40
2015,08,20,15,18,21.40
2015,08,20,15,19,21.40
2015,08,20,15,20,21.40
2015,08,20,15,21,21.40
2015,08,20,15,22,21.40
2015,08,20,15,23,21.50
2015,08,20,15,24,21.70
2015,08,20,15,25,21.70
2015,08,20,15,26,21.80
2015,08,20,15,27,21.80
2015,08,20,15,28,21.80
2015,08,20,15,29,21.70
2015,08,20,15,30,21.60
2015,08,20,15,31,21.60
2015,08,20,15,32,21.60
2015,08,20,15,33,21.60
2015,08,20,15,34,21.60
2015,08,20,15,35,21.60
2015,08,20,15,36,21.60
2015,08,20,15,37,21.60
2015,08,20,15,38,21.60
2015,08,20,15,39,21.70
2015,08,20,15,40,21.70
2015,08,20,15,41,21.70
2015,08,20,15,42,21.80
2015,08,20,15,43,21.80
2015,08,20,15,44,21.80
2015,08,20,15,45,21.80
2015,08,20,15,46,21.90
2015,08,20,15,47,21.90
2015,08,20,15,48,21.90
2015,08,20,15,49,21.80
2015,08,20,15,50,21.70
2015,08,20,15,51,21.70
2015,08,20,15,52,21.70
2015,08,20,15,53,21.60
2015,08,20,15,54,21.60
2015,08,20,15,55,21.60
2015,08,20,15,56,21.60
2015,08,20,15,57,21.60
2015,08,20,15,58,21.60
2015,08,20,15,59,21.60
2015,08,20,16,00,21.60
2015,08,20,16,01,21.60
2015,08,20,16,02,21.70
2015,08,20,16,03,21.80
2015,08,20,16,04,21.80
2015,08,20,16,05,21.90
2015,08,20,16,06,21.90
2015,08,20,16,07,21.90
2015,08,20,16,08,22.00
2015,08,20,16,09,22.00
2015,08,20,16,10,21.90
2015,08,20,16,11,21.80
2015,08,20,16,12,21.80
2015,08,20,16,13,21.70
2015,08,20,16,14,21.60
2015,08,20,16,15,21.60
2015,08,20,16,16,21.50
2015,08,20,16,17,21.50
2015,08,20,16,18,21.40
2015,08,20,16,19,21.30
2015,08,20,16,20,21.30
2015,08,20,16,21,21.20
2015,08,20,16,22,21.20
2015,08,20,16,23,21.20
2015,08,20,16,24,21.20
2015,08,20,16,25,21.10
2015,08,20,16,26,21.10
2015,08,20,16,27,21.10
2015,08,20,16,28,21.20
2015,08,20,16,29,21.20
2015,08,20,16,30,21.20
2015,08,20,16,31,21.30
2015,08,20,16,32,21.30
2015,08,20,16,33,21.30
2015,08,20,16,34,21.30
2015,08,20,16,35,21.30
2015,08,20,16,36,21.30
2015,08,20,16,37,21.30
2015,08,20,16,38,21.20
2015,08,20,16,39,21.10
2015,08,20,16,40,21.00
2015,08,20,16,41,21.00
2015,08,20,16,42,21.00
2015,08,20,16,43,21.00
2015,08,20,16,44,21.00
2015,08,20,16,45,21.00
2015,08,20,16,46,21.10
2015,08,20,16,47,21.10
2015,08,20,16,48,21.10
2015,08,20,16,49,21.10
2015,08,20,16,50,21.10
2015,08,20,16,51,21.00
2015,08,20,16,52,20.90
2015,08,20,16,53,20.80
2015,08,20,16,54,20.70
2015,08,20,16,55,20.70
2015,08,20,16,56,20.70
2015,08,20,16,57,20.70
2015,08,20,16,58,20.70
2015,08,20,16,59,20.70
2015,08,20,17,00,20.70
2015,08,20,17,01,20.80
2015,08,20,17,02,20.90
2015,08,20,17,03,20.90
2015,08,20,17,04,21.00
2015,08,20,17,05,21.00
2015,08,20,17,06,21.00
2015,08,20,17,07,21.00
2015,08,20,17,08,21.00
2015,08,20,17,09,20.90
2015,08,20,17,10,21.00
2015,08,20,17,11,21.00
2015,08,20,17,12,21.00
2015,08,20,17,13,21.00
2015,08,20,17,14,21.00
2015,08,20,17,15,21.00
2015,08,20,17,16,21.00
2015,08,20,17,17,21.00
2015,08,20,17,18,21.00
2015,08,20,17,19,21.00